CAPE
0 0 0 0 0 0 0 14 30 14 111 126 105 214 65 117 450 646 630 551 501 419 381 153 2 0 0 0 0 0 0 0 0 0 0 0 0 0 0 0 0 0 1 3
0 0 0 0 0 2 31 55 58 61 202 164 11 64 3 234 541 884 840 698 555 500 562 607 93 0 0 0 0 0 0 0 0 0 0 0 0 0 0 0 0 0 0 1
0 0 0 0 9 49 42 23 36 28 119 281 4 71 42 175 308 479 954 968 840 840 828 925 898 199 0 0 0 0 0 0 0 0 0 0 0 0 0 0 0 6 0 1
0 0 0 0 14 3 80 38 43 47 10 0 104 167 52 84 122 227 290 291 299 258 199 165 233 823 203 0 0 0 0 0 0 0 0 0 0 0 0 0 0 0 1 2
3 0 0 0 0 7 52 104 120 102 41 165 8 192 57 99 37 244 343 331 223 121 182 207 262 325 616 7 0 0 16 0 0 0 0 0 0 0 0 0 0 0 4 7
0 0 0 0 0 55 77 158 67 64 21 55 25 162 82 110 118 240 349 321 183 138 62 359 368 388 273 10 0 31 15 5 0 0 0 0 0 0 0 0 0 0 0 4
0 0 0 0 1 114 116 96 41 71 65 61 43 180 124 79 148 313 355 308 213 106 44 470 515 380 112 3 0 49 399 204 13 0 0 0 0 0 0 0 0 0 0 2
0 0 0 0 7 99 57 44 99 44 43 22 54 46 70 107 302 420 414 269 280 67 107 552 537 450 284 92 39 47 623 295 75 25 7 0 0 0 0 0 0 0 0 0
0 0 0 12 13 92 219 116 150 97 181 102 41 38 118 111 271 440 415 278 299 243 131 521 533 575 454 374 321 319 203 90 223 149 119 60 10 0 0 13 27 0 0 0
0 0 0 0 22 102 96 130 162 208 89 23 23 39 111 71 191 430 512 243 190 181 105 358 632 653 583 513 479 492 356 220 346 332 283 166 61 25 24 41 76 59 57 77
0 0 0 0 0 29 116 167 231 145 165 2 22 47 111 136 414 516 404 229 11 0 9 364 556 664 639 541 532 767 581 528 468 560 445 231 115 89 71 66 65 81 106 134
0 0 0 0 1 20 121 175 195 92 21 114 98 204 217 415 467 515 336 183 0 0 16 280 625 594 575 664 647 706 511 648 695 537 400 371 313 207 182 161 206 198 186 174
0 14 28 78 134 104 132 179 224 368 263 34 83 68 210 476 533 547 369 200 0 0 0 69 453 613 548 786 776 674 661 715 861 845 407 302 216 165 133 181 283 244 181 156
104 131 8 0 0 0 0 10 125 172 4 72 27 26 102 361 666 656 426 26 0 0 7 141 461 577 767 906 808 845 897 866 911 804 186 59 2 0 0 37 117 124 102 98
360 1 9 0 0 1 0 0 0 9 16 33 54 100 304 622 639 550 352 12 0 0 33 167 411 672 898 979 961 908 926 855 716 248 98 7 0 0 21 100 131 121 101 212
184 107 121 19 0 25 24 0 11 33 79 142 227 409 631 782 645 560 233 6 0 8 111 307 506 707 931 929 778 770 685 628 261 97 0 0 0 32 45 48 164 364 194 8
517 406 197 68 60 39 49 4 5 84 246 531 274 377 616 574 609 614 318 72 92 104 131 278 521 862 1003 893 772 609 427 152 120 0 0 0 0 2 192 267 126 0 0 0
519 498 265 140 227 103 143 380 388 398 403 488 481 389 469 491 515 273 165 178 185 266 391 409 556 881 962 761 490 212 109 117 64 11 44 118 178 151 27 0 0 0 0 0
340 343 72 69 78 64 35 434 567 536 367 371 375 370 392 490 491 472 301 315 411 574 661 515 548 706 649 446 286 204 131 52 89 193 66 6 0 0 0 0 0 0 0 0
505 375 205 220 26 21 476 471 377 359 250 571 582 624 709 539 159 627 751 519 440 808 747 620 564 531 501 372 308 286 152 171 45 0 0 0 0 0 0 0 0 0 0 0
139 278 88 186 68 166 310 410 347 348 717 939 866 882 868 579 493 911 601 570 360 599 772 664 516 509 496 378 401 293 198 94 0 0 0 0 0 0 0 0 0 0 0 0
148 232 279 347 188 82 457 702 356 921 889 965 824 717 779 725 794 648 460 444 725 728 817 518 430 545 516 432 300 232 145 0 0 0 0 0 0 0 0 0 0 0 0 0
385 597 470 370 370 900 718 523 646 840 757 669 735 749 755 677 648 497 452 565 911 903 847 463 400 399 281 192 180 181 10 0 0 0 0 0 0 0 0 0 0 0 0 0
427 634 418 479 249 348 404 408 615 676 613 624 556 582 699 751 537 832 774 629 854 778 470 380 231 124 49 33 47 13 0 0 0 0 0 0 0 0 0 0 0 0 0 0
495 575 302 267 169 267 272 552 516 499 455 440 378 524 627 546 795 811 459 652 883 558 433 215 97 28 0 3 0 0 0 0 0 0 0 0 0 0 0 0 0 0 0 0
307 12 163 60 689 395 243 622 489 455 547 561 649 664 638 868 866 540 483 589 790 701 410 156 16 0 0 0 0 0 0 0 0 0 0 0 0 0 0 0 0 0 0 0
CIN
-0 -0 -0 -0 -0 -0 -0 -23 -10 -26 -32 -41 -14 -19 -28 -58 -56 -80 -75 -58 -51 -49 -33 -54 -36 -0 -0 -0 -0 -0 -0 -0 -0 -0 -0 -0 -0 -0 -0 -0 -0 -0 -0 -0
-0 -0 -0 -0 -0 -5 -11 -4 -8 -14 -51 -39 -31 -20 -16 -34 -44 -35 -36 -58 -61 -54 -51 -44 -174 -0 -0 -0 -0 -0 -0 -0 -0 -0 -0 -0 -0 -0 -0 -0 -0 -0 -0 -1
-0 -0 -0 -0 -11 -7 -6 -13 -16 -14 -25 -53 -37 -9 -30 -19 -26 -44 -39 -60 -61 -56 -50 -39 -37 -257 -0 -0 -0 -0 -0 -0 -0 -0 -0 -0 -0 -0 -0 -0 -0 -0 -0 -0
-0 -0 -0 -0 -3 -10 -5 -35 -37 -23 -11 -4 -71 -5 -30 -35 -23 -16 -49 -61 -63 -68 -74 -84 -80 -60 -310 -0 -0 -0 -0 -0 -0 -0 -0 -0 -0 -0 -0 -0 -0 -0 -0 -0
-6 -0 -0 -0 -0 -29 -14 -34 -22 -19 -20 -11 -38 -8 -6 -17 -10 -21 -53 -78 -106 -129 -130 -153 -136 -120 -186 -200 -0 -0 -178 -0 -0 -0 -0 -0 -0 -0 -0 -0 -0 -0 -0 -0
-0 -0 -0 -0 -0 -30 -39 -14 -9 -23 -7 -8 -35 -24 -16 -3 -25 -13 -54 -81 -149 -146 -182 -215 -280 -278 -321 -223 -0 -212 -180 -52 -0 -0 -0 -0 -0 -0 -0 -0 -0 -0 -0 -1
-0 -0 -0 -0 -1 -26 -16 -15 -5 -5 -8 -9 -19 -10 -5 -9 -38 -43 -63 -73 -137 -158 -184 -162 -213 -288 -380 -235 -0 -198 -37 -59 -107 -0 -0 -0 -0 -0 -0 -0 -0 -0 -0 -1
-0 -0 -0 -0 -7 -3 -3 -3 -3 -5 -5 -6 -14 -3 -5 -22 -44 -59 -67 -86 -129 -173 -156 -148 -185 -212 -221 -261 -242 -173 -5 -34 -88 -115 -104 -0 -0 -0 -0 -0 -0 -0 -0 -0
-0 -0 -0 -56 -27 -30 -10 -4 -17 -8 -11 -6 -6 -3 -3 -15 -7 -33 -43 -74 -126 -163 -158 -119 -151 -167 -186 -184 -148 -77 -44 -76 -41 -59 -72 -80 -107 -0 -0 -34 -28 -0 -0 -0
-0 -0 -0 -0 -54 -55 -26 -40 -10 -5 -2 -3 -3 -6 -6 -1 -6 -19 -25 -68 -118 -136 -135 -111 -103 -132 -146 -143 -120 -52 -40 -36 -30 -36 -50 -43 -61 -72 -56 -61 -18 -15 -14 -10
-0 -0 -0 -0 -0 -6 -14 -11 -15 -19 -9 -2 -3 -4 -26 -13 -24 -37 -43 -78 -72 -0 -135 -102 -97 -111 -121 -105 -62 -29 -23 -15 -21 -26 -25 -33 -42 -58 -67 -42 -18 -10 -10 -9
-0 -0 -0 -0 -38 -64 -25 -7 -6 -3 -2 -3 -4 -3 -27 -27 -28 -59 -61 -86 -0 -0 -113 -77 -99 -103 -103 -83 -58 -54 -50 -15 -3 -16 -26 -25 -18 -20 -17 -19 -14 -9 -12 -14
-0 -16 -6 -16 -36 -54 -17 -28 -29 -30 -20 -9 -6 -4 -31 -31 -37 -53 -56 -74 -0 -0 -0 -86 -74 -73 -81 -71 -71 -65 -58 -26 -1 -1 -5 -16 -29 -32 -35 -32 -20 -16 -15 -15
-50 -27 -17 -0 -0 -0 -0 -29 -27 -19 -15 -7 -10 -17 -5 -3 -22 -49 -42 -45 -0 -0 -57 -59 -39 -50 -46 -52 -50 -56 -46 -23 -8 -1 -17 -31 -30 -0 -0 -37 -24 -25 -20 -22
-56 -3 -26 -0 -0 -58 -0 -0 -0 -78 -39 -31 -22 -5 -4 -16 -19 -28 -47 -61 -0 -0 -52 -47 -42 -46 -32 -40 -46 -47 -30 -34 -18 -28 -25 -19 -0 -0 -20 -26 -20 -26 -29 -8
-56 -15 -29 -49 -1 -77 -85 -12 -100 -58 -15 -7 -1 -2 -28 -31 -37 -34 -36 -97 -0 -50 -43 -44 -35 -40 -36 -41 -38 -51 -48 -42 -43 -29 -0 -0 -0 -11 -23 -32 -25 -3 -2 -6
-23 -9 -20 -3 -55 -58 -33 -76 -47 -29 -10 -12 -5 -15 -23 -18 -12 -13 -22 -38 -36 -38 -43 -23 -35 -51 -53 -53 -47 -39 -49 -60 -43 -0 -0 -0 -0 -0 -14 -8 -16 -0 -0 -0
-19 -18 -26 -21 -26 -19 -41 -53 -55 -35 -20 -21 -24 -25 -32 -32 -30 -29 -57 -54 -38 -39 -27 -33 -50 -77 -87 -55 -60 -86 -74 -55 -31 -9 -5 -7 -3 -5 -12 -0 -0 -0 -0 -0
-109 -62 -66 -67 -25 -33 -55 -62 -41 -37 -20 -42 -41 -38 -38 -38 -41 -13 -75 -70 -60 -47 -36 -47 -55 -63 -86 -92 -89 -73 -61 -48 -25 -19 -24 -5 -0 -0 -0 -0 -0 -0 -0 -0
-104 -110 -62 -40 -73 -45 -39 -88 -114 -93 -13 -59 -53 -43 -49 -54 -22 -10 -73 -60 -47 -53 -61 -70 -77 -88 -91 -97 -82 -51 -39 -24 -34 -0 -0 -0 -0 -0 -0 -0 -0 -0 -0 -0
-84 -66 -65 -31 -58 -23 -98 -95 -135 -15 -29 -71 -63 -49 -42 -46 -31 -40 -44 -55 -76 -60 -60 -76 -92 -78 -82 -84 -62 -45 -31 -40 -0 -0 -0 -0 -0 -0 -0 -0 -0 -0 -0 -0
-85 -62 -41 -55 -53 -32 -72 -54 -44 -49 -71 -62 -60 -51 -53 -48 -60 -43 -42 -39 -35 -40 -59 -118 -98 -95 -87 -68 -55 -47 -50 -0 -0 -0 -0 -0 -0 -0 -0 -0 -0 -0 -0 -0
-58 -55 -34 -62 -13 -41 -68 -66 -66 -75 -76 -61 -64 -70 -68 -75 -78 -70 -77 -55 -37 -63 -84 -132 -108 -115 -127 -109 -68 -48 -99 -0 -0 -0 -0 -0 -0 -0 -0 -0 -0 -0 -0 -0
-92 -81 -63 -69 -54 -63 -57 -70 -74 -82 -69 -80 -71 -74 -74 -72 -69 -53 -53 -59 -71 -110 -141 -149 -131 -141 -171 -140 -161 -111 -0 -0 -0 -0 -0 -0 -0 -0 -0 -0 -0 -0 -0 -0
-36 -68 -83 -92 -84 -80 -68 -43 -60 -69 -68 -60 -68 -77 -71 -63 -43 -31 -37 -64 -73 -115 -120 -125 -154 -201 -0 -108 -0 -0 -0 -0 -0 -0 -0 -0 -0 -0 -0 -0 -0 -0 -0 -0
-57 -144 -82 -93 -30 -55 -54 -29 -52 -58 -55 -59 -59 -46 -45 -54 -36 -33 -28 -53 -71 -84 -146 -176 -192 -0 -0 -0 -0 -0 -0 -0 -0 -0 -0 -0 -0 -0 -0 -0 -0 -0 -0 -0
Wind_Speed
13 10 19 9 6 8 8 16 23 25 23 18 28 23 25 26 21 16 13 12 11 9 5 5 4 3 4 5 7 10 13 13 14 14 16 13 12 14 13 14 14 14 16 17
11 12 19 13 15 15 13 13 26 18 23 15 23 21 24 25 23 21 19 17 15 13 9 7 5 3 3 2 4 4 5 8 8 10 10 11 14 13 14 14 14 13 14 15
10 14 10 15 19 12 22 26 26 24 22 18 17 18 25 21 21 23 22 20 18 17 17 15 8 4 3 3 4 5 6 9 12 13 11 12 12 12 14 14 16 15 14 14
7 13 13 13 20 19 22 24 21 23 27 28 26 21 27 24 22 23 25 26 25 25 26 25 19 5 2 4 7 8 9 11 13 13 12 12 13 15 18 17 18 16 15 15
6 7 18 7 21 18 22 20 22 22 23 22 30 16 25 23 26 25 25 27 27 28 29 31 27 19 8 7 9 9 11 13 13 12 12 12 14 16 17 18 18 16 15 16
8 13 13 20 14 16 16 14 13 16 20 21 26 21 24 27 25 23 24 27 29 31 31 30 29 25 17 13 12 12 13 12 12 11 11 12 14 16 18 19 18 18 18 18
3 4 11 9 7 12 11 17 18 25 26 28 23 13 24 26 23 20 21 26 28 30 32 31 28 25 20 16 13 12 12 11 11 10 10 12 14 16 16 17 18 19 18 18
3 1 2 6 6 17 16 20 22 27 30 29 17 23 22 23 21 20 21 25 28 31 33 31 28 24 20 16 13 13 12 11 9 8 8 11 13 14 15 16 18 17 18 17
12 1 9 10 10 11 14 15 18 16 11 13 21 23 14 23 21 21 20 25 27 29 31 28 26 24 21 17 13 13 13 11 9 8 8 9 11 12 14 15 15 16 17 15
10 12 9 10 9 12 11 15 10 12 22 24 31 6 24 29 24 22 20 24 27 27 29 26 24 23 20 17 13 11 12 13 11 9 8 9 10 10 11 12 12 13 12 11
8 11 11 10 7 15 10 7 9 10 11 25 25 30 22 26 23 21 20 23 25 27 28 26 23 22 19 16 13 11 11 15 15 12 9 9 10 10 10 10 9 9 9 8
8 12 5 13 14 13 11 14 8 15 24 21 14 20 22 24 22 20 21 22 23 24 23 24 24 21 18 16 13 11 9 10 15 14 11 10 10 10 10 9 8 8 8 8
10 11 10 10 11 11 10 14 13 13 15 10 22 24 22 22 20 19 20 20 21 24 25 26 24 22 19 17 15 13 10 8 9 12 13 13 13 13 12 12 11 10 10 10
12 14 18 22 21 22 13 14 15 16 14 23 18 28 25 26 21 19 19 19 21 23 26 27 25 22 20 19 17 16 14 13 12 12 14 15 15 17 17 15 14 14 14 15
14 16 18 17 16 15 18 19 13 11 15 17 25 23 26 24 22 20 19 19 19 22 25 25 23 21 20 19 17 17 16 15 15 14 14 15 14 15 15 15 16 17 19 20
17 15 16 14 15 16 20 18 13 14 15 15 18 21 25 23 20 18 18 17 19 21 22 21 20 20 19 18 17 17 16 17 16 16 15 14 14 14 16 18 19 21 22 22
18 15 16 17 17 22 19 15 15 17 15 18 20 26 24 23 22 20 18 18 20 18 19 17 17 17 17 17 17 17 17 17 16 16 16 16 16 16 18 20 21 22 23 22
17 17 17 18 19 18 17 19 18 17 16 16 18 22 22 23 23 20 22 21 20 19 17 15 14 15 16 16 17 16 16 16 16 18 19 19 19 20 20 21 22 22 22 22
20 18 18 17 15 19 14 19 20 22 21 19 20 23 25 25 23 16 21 23 21 19 16 14 13 13 15 15 15 15 16 17 17 19 20 21 21 20 20 20 20 20 20 21
16 14 14 16 19 21 19 19 20 19 20 22 24 23 25 26 24 22 23 23 20 17 14 13 11 11 13 14 15 16 16 17 19 20 20 20 21 20 19 19 19 19 19 21
17 16 16 17 19 19 18 19 18 21 23 27 27 25 24 23 23 23 23 26 22 13 11 10 9 10 12 13 14 16 16 18 19 19 19 20 19 19 19 19 18 18 19 20
16 16 16 17 19 20 19 19 21 23 24 25 25 25 24 23 23 22 23 25 22 15 9 6 8 9 11 12 14 15 17 18 19 19 19 19 18 19 18 18 18 19 20 21
16 18 19 17 20 21 19 21 21 21 23 25 26 25 24 23 24 26 25 23 21 17 9 6 8 9 10 12 13 15 16 17 18 18 18 17 18 18 17 17 18 18 20 22
14 15 19 21 17 22 23 21 20 20 22 25 25 24 22 23 25 27 25 23 19 15 10 7 9 11 11 13 14 15 16 17 17 17 17 17 17 17 16 17 17 19 22 23
20 16 21 22 22 21 18 21 22 23 23 24 26 24 23 23 25 24 22 21 18 14 11 9 9 9 10 13 14 15 16 16 15 16 16 17 16 16 16 17 19 20 20 22
17 21 20 25 25 23 23 22 24 23 24 26 27 26 24 23 23 22 21 20 16 13 10 12 12 13 15 13 14 15 15 14 14 15 15 17 17 17 17 17 15 15 18 18
Wind_Direction
131 177 319 259 167 146 143 56 324 8 28 46 14 27 24 34 64 74 76 78 66 59 73 61 54 81 79 65 41 16 7 9 18 16 9 42 65 40 44 40 39 35 29 27
132 80 30 73 76 77 76 67 14 39 27 52 30 42 31 33 50 52 55 53 53 47 46 43 44 78 134 79 57 54 47 42 49 42 76 57 43 47 42 38 34 31 29 28
132 33 88 62 39 67 25 9 4 15 22 47 23 59 32 46 49 38 39 48 48 40 30 26 25 65 103 137 122 111 84 72 90 106 86 67 56 51 40 37 28 28 30 32
56 32 34 50 15 11 354 18 33 19 10 11 28 30 28 32 38 38 31 32 34 29 23 18 17 27 83 121 134 117 73 93 103 109 78 59 51 39 25 26 24 27 31 29
37 49 351 91 349 30 11 29 19 17 11 29 11 36 24 34 24 27 30 19 27 27 21 13 15 23 64 96 125 110 103 106 104 100 79 60 45 35 31 27 27 32 30 28
193 340 356 338 23 31 34 40 53 46 33 16 14 29 24 11 15 17 22 14 18 18 21 23 25 34 54 85 111 101 106 107 107 93 73 57 43 34 26 25 29 30 29 26
181 190 342 10 62 43 56 26 20 359 5 1 22 46 8 10 19 26 28 16 15 19 20 21 26 36 55 75 94 100 100 98 103 89 66 49 40 35 32 32 32 27 30 31
358 184 83 53 72 356 16 9 5 353 350 358 42 17 19 22 25 28 23 16 13 9 16 26 29 42 51 61 81 98 90 87 86 75 70 51 43 40 38 38 32 34 32 36
331 43 3 7 19 29 20 18 18 22 45 32 21 13 52 28 27 21 19 14 16 18 18 29 31 34 38 52 80 89 71 71 76 76 87 62 45 44 39 38 39 38 34 39
356 335 8 355 15 9 16 18 37 39 4 298 325 68 6 1 14 16 21 15 12 18 17 27 31 32 41 51 74 82 64 55 60 76 85 64 48 47 41 37 36 38 42 46
7 341 359 8 20 348 29 60 55 40 37 353 357 339 13 6 11 18 25 19 18 14 15 21 26 28 35 43 64 72 67 51 50 60 73 59 48 44 37 37 42 45 48 51
14 346 28 349 1 9 25 12 56 10 343 2 24 15 19 13 16 21 20 21 22 23 25 18 17 22 35 39 48 57 73 61 47 48 60 53 44 39 35 40 48 50 47 43
50 13 38 27 25 35 24 8 20 25 18 30 359 359 14 15 20 24 18 20 21 17 19 18 18 20 27 33 38 48 68 79 65 49 48 41 39 40 42 47 51 49 42 34
8 358 324 311 319 326 20 28 16 12 18 352 8 352 5 7 16 16 17 20 19 17 16 15 24 29 29 28 37 45 57 59 58 47 43 37 41 39 39 47 48 40 32 26
354 341 311 330 352 10 356 348 25 39 20 12 358 5 3 8 9 12 14 15 14 14 14 19 24 29 32 36 46 50 51 49 46 44 44 42 48 42 40 40 35 30 25 25
316 333 331 356 359 0 346 358 41 22 16 18 13 11 9 9 11 12 12 13 10 10 14 20 35 38 33 38 40 43 46 41 44 39 42 47 41 41 34 31 27 24 24 23
310 334 338 335 344 327 345 14 13 9 12 9 4 359 4 6 6 8 9 9 5 7 11 21 31 36 39 34 36 36 40 42 41 37 36 32 32 33 26 24 23 22 24 29
315 321 328 331 343 344 5 5 5 3 4 11 8 4 5 3 3 6 5 2 0 3 9 18 26 31 32 41 39 46 41 36 34 30 27 22 21 19 22 24 23 27 31 31
306 315 321 332 348 342 357 1 359 357 354 7 8 4 2 1 360 360 7 5 2 2 6 12 19 28 31 33 41 40 34 33 27 21 16 14 14 15 21 27 28 31 33 34
329 347 336 342 338 338 351 358 1 3 352 6 1 359 358 358 356 4 358 355 355 358 4 12 24 29 26 29 34 30 31 24 19 16 14 14 13 16 25 30 28 30 34 31
318 328 332 337 334 341 357 1 8 352 352 351 353 354 352 350 349 349 352 351 349 349 359 14 24 21 19 25 28 25 25 17 16 14 14 16 18 20 25 27 30 31 31 26
324 331 337 337 336 333 358 358 351 350 349 349 350 350 348 348 349 349 348 348 355 359 4 25 35 32 23 19 22 19 19 16 13 10 13 16 16 17 26 30 31 27 25 21
326 326 329 337 338 345 350 346 348 350 349 350 349 350 351 351 350 347 345 347 348 351 6 31 24 27 26 12 23 14 14 12 8 11 15 15 14 18 25 26 24 25 22 19
328 335 329 332 348 340 342 348 355 356 352 352 354 355 355 353 352 351 353 353 355 1 13 29 15 9 12 1 11 7 10 8 9 11 12 10 11 16 21 22 22 19 16 15
321 331 325 326 329 338 350 352 353 353 354 353 353 354 354 353 350 352 356 358 2 5 11 16 8 3 1 354 3 3 6 7 10 9 8 7 11 16 17 15 13 14 18 16
318 317 318 321 331 333 336 347 346 350 351 351 351 351 351 351 351 353 354 356 359 2 4 352 349 345 341 353 353 356 4 9 9 6 9 4 5 9 10 9 15 20 17 17